Date,TemperatureHighF,TemperatureAvgF,TemperatureLowF,DewpointHighF,DewpointAvgF,DewpointLowF,HumidityHigh,HumidityAvg,HumidityLow,PressureMaxIn,PressureMinIn,WindSpeedMaxMPH,WindSpeedAvgMPH,GustSpeedMaxMPH,PrecipitationSumIn
2013-1-1,45.9,37.9,31.8,44.0,37.5,32.0,100,98,93,30.31,30.23,1,0,2,0.00
2013-1-2,45.3,35.8,29.1,44.0,35.3,29.0,100,98,94,30.29,30.17,1,0,1,0.00
2013-1-3,47.1,36.7,29.2,46.0,36.1,29.0,100,97,93,30.32,30.22,1,0,1,0.00
2013-1-4,48.3,38.8,31.7,47.0,38.5,32.0,100,98,96,30.34,30.21,1,0,1,0.00
2013-1-5,45.3,40.6,33.2,45.0,40.6,33.0,100,100,99,30.29,30.09,0,0,3,0.69
2013-1-6,50.0,35.1,38.8,50.0,13.4,-99.9,100,78,100,30.22,30.10,0,-218,3,0.05
2013-1-7,52.7,44.1,36.7,53.0,44.1,37.0,100,100,100,30.28,30.16,2,0,2,0.00
2013-1-8,52.2,46.1,40.7,52.0,46.1,41.0,100,100,100,30.27,30.14,1,0,1,0.00
2013-1-9,49.2,43.5,36.4,49.0,43.2,36.0,100,99,86,30.18,30.01,4,0,6,0.00
2013-1-10,48.0,38.5,31.8,41.0,36.0,32.0,100,91,61,30.24,30.11,4,1,8,0.00
2013-1-11,51.4,40.1,33.2,45.0,37.6,32.0,97,91,66,30.29,30.15,4,0,6,0.00
2013-1-12,46.0,36.3,29.8,41.0,34.8,29.0,99,94,78,30.30,30.16,2,0,3,0.00
2013-1-13,42.8,33.7,27.2,41.0,32.7,27.0,99,96,91,30.32,30.22,1,0,2,0.00
2013-1-14,44.1,34.3,27.1,41.0,33.2,26.0,98,95,88,30.45,30.29,1,0,2,0.00
2013-1-15,46.0,36.1,29.0,44.0,35.3,29.0,100,97,91,30.54,30.44,1,0,2,0.00
2013-1-16,47.8,36.8,29.1,46.0,36.0,29.0,100,97,91,30.50,30.31,1,0,2,0.00
2013-1-17,49.7,38.0,28.8,48.0,37.3,28.0,100,97,93,30.33,30.18,1,0,1,0.00
2013-1-18,50.5,38.5,30.0,49.0,37.9,30.0,100,97,92,30.28,30.17,1,0,1,0.00
2013-1-19,51.4,39.0,29.6,49.0,38.2,29.0,100,97,90,30.30,30.18,2,0,2,0.00
2013-1-20,51.4,39.2,29.8,49.0,38.3,29.0,100,97,90,30.27,30.15,1,0,1,0.00
2013-1-21,51.6,39.2,29.9,49.0,38.3,29.0,100,96,90,30.23,30.11,1,0,1,0.00
2013-1-22,52.2,41.3,31.1,50.0,40.5,31.0,100,97,90,30.16,30.02,2,0,2,0.00
2013-1-23,48.1,45.8,42.6,48.0,45.7,42.0,100,99,98,30.11,29.98,2,0,2,0.67
2013-1-24,54.0,49.8,46.5,54.0,49.9,47.0,100,100,100,30.21,30.09,0,0,0,0.01
2013-1-25,56.8,52.2,49.0,57.0,52.1,49.0,100,100,100,30.21,30.06,0,0,1,0.00
2013-1-26,55.9,46.6,38.7,49.0,43.9,38.0,100,91,58,30.10,29.99,9,1,10,0.00
2013-1-27,53.7,41.2,33.9,43.0,37.5,33.0,100,89,50,30.22,30.09,3,0,7,0.00
2013-1-28,55.5,43.3,35.2,45.0,39.6,35.0,99,88,60,30.32,30.21,5,0,10,0.00
2013-1-29,54.3,44.6,37.3,49.0,42.9,37.0,98,94,81,30.38,30.29,1,0,3,0.00
2013-1-30,56.3,44.4,35.3,54.0,43.4,35.0,100,96,90,30.36,30.26,1,0,1,0.00
2013-1-31,56.0,44.0,34.7,53.0,43.0,34.0,100,96,89,30.33,30.20,0,0,2,0.00
2013-2-1,56.2,44.5,35.6,53.0,43.5,35.0,100,96,89,30.25,30.13,1,0,2,0.00
2013-2-2,56.3,46.4,40.8,52.0,45.4,40.0,99,96,83,30.33,30.23,1,0,3,0.00
2013-2-3,57.0,46.6,40.5,51.0,45.4,40.0,99,95,78,30.27,30.16,2,0,3,0.00
2013-2-4,55.8,46.4,40.7,52.0,45.3,41.0,99,96,84,30.20,30.08,2,0,2,0.00
2013-2-5,58.6,48.3,41.1,50.0,46.1,40.0,99,93,71,30.18,30.07,6,1,10,0.00
2013-2-6,55.1,42.8,34.0,50.0,41.1,34.0,99,94,75,30.23,30.09,1,0,5,0.00
2013-2-7,52.3,43.9,37.9,46.0,41.1,37.0,100,91,57,30.15,29.99,7,1,9,0.23
2013-2-8,53.9,41.1,33.7,46.0,38.9,34.0,100,92,60,30.03,29.94,3,0,7,0.00
2013-2-9,55.7,39.3,30.1,44.0,35.7,29.0,99,88,45,30.14,30.03,4,0,5,0.00
2013-2-10,54.1,39.8,30.0,49.0,37.7,29.0,99,92,80,30.16,30.04,1,0,3,0.00
2013-2-11,59.1,42.2,32.0,49.0,39.6,31.0,99,91,63,30.26,30.13,2,0,4,0.00
2013-2-12,56.0,42.4,32.5,50.0,40.6,32.0,99,93,77,30.40,30.26,1,0,2,0.00
2013-2-13,56.7,42.9,32.4,51.0,41.2,32.0,100,94,79,30.38,30.23,0,0,0,0.00
2013-2-14,60.1,45.9,35.5,55.0,44.3,35.0,100,94,84,30.29,30.14,1,0,1,0.00
2013-2-15,60.8,47.2,36.1,55.0,45.1,36.0,100,93,78,30.26,30.19,0,0,0,0.00
2013-2-16,60.9,47.3,38.2,56.0,45.5,38.0,99,93,81,30.25,30.06,0,0,2,0.00
2013-2-17,58.9,44.8,35.8,51.0,42.4,35.0,100,91,73,30.08,29.98,1,0,2,0.00
2013-2-18,53.1,42.8,34.3,46.0,39.9,34.0,99,90,73,30.05,29.94,4,0,6,0.00
2013-2-19,48.6,40.4,33.6,43.0,37.4,33.0,99,90,60,29.99,29.77,8,1,14,0.21
2013-2-20,56.2,40.7,29.8,45.0,36.3,29.0,99,86,43,30.09,29.90,4,0,7,0.00
2013-2-21,59.7,44.6,36.3,45.0,39.0,34.0,96,83,40,30.20,30.09,4,0,6,0.00
2013-2-22,59.3,45.7,34.2,50.0,42.1,34.0,99,88,57,30.28,30.15,2,0,6,0.00
2013-2-23,57.2,46.9,38.4,43.0,37.8,31.0,97,74,40,30.27,30.17,4,1,10,0.00
2013-2-24,60.8,43.7,32.7,46.0,38.2,32.0,96,82,42,30.27,30.14,1,0,2,0.00
2013-2-25,65.3,45.7,34.3,46.0,35.7,20.0,98,74,18,30.27,30.14,3,0,7,0.00
2013-2-26,61.9,44.0,31.5,46.0,38.2,30.0,95,81,53,30.26,30.16,0,0,1,0.00
2013-2-27,62.5,46.7,32.8,50.0,41.9,32.0,97,85,61,30.39,30.24,3,0,6,0.00
2013-2-28,66.6,52.5,44.3,56.0,49.9,44.0,99,91,68,30.46,30.37,1,0,3,0.00
2013-3-1,67.0,51.8,42.8,57.0,49.0,42.0,99,91,67,30.45,30.24,1,0,2,0.00
2013-3-2,63.9,52.7,43.9,58.0,50.6,43.0,98,93,81,30.25,30.05,1,0,2,0.00
2013-3-3,65.0,52.7,46.0,53.0,49.3,45.0,98,89,62,30.08,30.00,3,0,4,0.00
2013-3-4,53.7,46.3,38.4,48.0,44.2,37.0,97,92,79,30.16,30.08,2,0,3,0.00
2013-3-5,53.3,45.4,38.5,48.0,43.5,38.0,98,93,78,30.10,29.79,4,0,7,1.21
2013-3-6,52.4,46.1,39.7,48.0,44.2,39.0,99,93,72,30.07,29.82,7,1,9,0.17
2013-3-7,52.2,43.7,37.3,48.0,42.1,37.0,99,94,77,30.03,29.90,2,0,2,0.00
2013-3-8,61.8,45.4,34.7,48.0,40.3,34.0,99,85,42,30.05,29.86,8,1,9,0.00
2013-3-9,64.5,47.2,35.4,52.0,43.5,35.0,99,88,49,30.32,30.06,2,0,3,0.00
2013-3-10,67.6,47.9,35.5,52.0,42.8,35.0,99,85,37,30.35,30.23,2,0,5,0.00
2013-3-11,67.3,49.5,36.8,54.0,45.2,36.0,99,86,46,30.27,30.09,1,0,2,0.00
2013-3-12,70.0,51.8,40.9,59.0,48.2,40.0,99,89,60,30.18,30.07,1,0,4,0.00
2013-3-13,71.0,53.3,41.0,60.0,50.1,40.0,99,89,66,30.18,30.07,0,0,0,0.00
2013-3-14,66.4,53.5,45.0,60.0,50.9,44.0,98,91,76,30.18,30.09,0,0,3,0.00
2013-3-15,70.4,53.1,42.4,59.0,48.5,42.0,98,85,54,30.15,30.02,4,0,5,0.00
2013-3-16,73.7,54.2,40.6,54.0,44.2,34.0,98,74,24,30.14,30.01,4,0,9,0.00
2013-3-17,68.7,52.8,41.3,52.0,44.0,34.0,91,75,30,30.14,30.03,3,0,3,0.00
2013-3-18,66.4,51.6,39.8,53.0,46.1,39.0,97,83,52,30.12,30.01,2,0,2,0.00
2013-3-19,54.9,48.8,43.1,54.0,46.9,42.0,98,93,84,30.13,30.07,0,0,0,0.06
2013-3-20,56.2,50.0,45.8,56.0,49.7,45.0,99,98,96,30.15,30.07,4,0,4,0.73
2013-3-21,61.9,47.9,37.6,52.0,44.6,37.0,99,89,59,30.16,30.02,2,0,3,0.00
2013-3-22,63.8,47.4,35.5,49.0,40.9,35.0,98,81,38,30.16,30.05,2,0,3,0.00
2013-3-23,64.7,48.0,35.8,48.0,41.4,35.0,98,80,45,30.17,30.04,4,0,5,0.00
2013-3-24,68.6,51.2,38.2,52.0,45.3,37.0,98,82,48,30.09,29.95,3,0,3,0.00
2013-3-25,58.2,47.8,41.1,48.0,44.5,40.0,98,89,68,30.02,29.94,2,0,3,0.00
2013-3-26,63.2,50.2,43.3,51.0,45.8,42.0,96,86,62,30.02,29.95,2,0,4,0.00
2013-3-27,57.8,51.1,44.6,54.0,48.8,43.0,96,92,83,30.03,29.96,2,0,3,0.00
2013-3-28,58.2,52.7,49.6,57.0,51.8,49.0,98,96,87,30.10,30.02,1,0,2,0.10
2013-3-29,72.3,56.6,48.1,61.0,53.3,48.0,99,90,56,30.11,30.02,4,0,6,0.00
2013-3-30,65.6,55.1,50.6,55.0,52.0,49.0,97,89,58,30.09,30.01,3,0,7,0.06
2013-3-31,57.1,54.4,52.8,57.0,53.9,52.0,98,98,97,30.08,30.01,1,0,2,0.86
2013-4-1,62.0,53.9,48.4,56.0,52.3,47.0,97,94,77,30.16,30.06,2,0,4,0.12
2013-4-2,66.0,51.8,46.3,57.0,49.2,46.0,97,91,66,30.20,30.10,1,0,3,0.00
2013-4-3,70.9,53.8,45.7,59.0,50.1,45.0,96,88,61,30.15,29.99,2,0,3,0.00
2013-4-4,57.4,52.8,49.5,56.0,51.7,48.0,96,96,93,30.12,29.99,1,0,2,1.46
2013-4-5,60.7,54.9,51.8,56.0,52.6,50.0,95,92,80,30.20,30.12,2,0,5,0.01
2013-4-6,65.6,55.7,50.8,57.0,52.5,50.0,95,89,69,30.19,30.13,2,0,4,0.01
2013-4-7,62.2,54.2,49.0,56.0,50.5,46.0,95,88,65,30.16,29.84,6,1,10,0.10
2013-4-8,66.8,53.8,46.8,49.0,40.9,35.0,91,64,35,30.07,29.82,7,1,10,0.00
2013-4-9,74.5,55.3,39.9,54.0,43.6,32.0,96,71,23,30.14,30.04,4,0,8,0.00
2013-4-10,83.9,60.2,46.5,61.0,50.9,45.0,96,76,29,30.17,30.02,8,0,10,0.00
2013-4-11,74.7,60.1,48.2,54.0,48.1,42.0,90,67,31,30.06,29.82,4,0,8,0.00
2013-4-12,75.0,56.0,43.4,54.0,47.7,42.0,96,77,35,29.92,29.80,3,0,5,0.00
2013-4-13,74.7,58.1,44.4,53.0,43.2,36.0,96,64,29,29.90,29.80,4,1,8,0.00
2013-4-14,69.9,54.4,41.3,48.0,41.5,32.0,88,65,31,29.94,29.85,13,2,17,0.00
2013-4-15,58.6,49.5,40.9,44.0,36.8,32.0,94,66,38,29.99,29.87,12,2,17,0.00
2013-4-16,66.2,51.8,37.1,43.0,35.1,25.0,89,58,23,30.20,29.99,3,0,7,0.00
2013-4-17,69.6,53.5,39.5,46.0,37.5,28.0,88,60,22,30.30,30.17,3,0,6,0.00
2013-4-18,73.2,55.7,41.0,50.0,42.8,37.0,92,67,27,30.29,30.18,2,0,5,0.00
2013-4-19,80.9,61.1,44.5,55.0,47.4,43.0,94,66,28,30.25,30.07,5,1,8,0.00
2013-4-20,77.8,61.3,48.0,52.0,46.1,41.0,83,61,28,30.13,29.96,2,0,4,0.00
2013-4-21,82.5,61.4,46.1,56.0,48.8,42.0,95,69,24,30.05,29.91,2,0,4,0.00
2013-4-22,85.7,63.8,48.7,57.0,50.5,40.0,92,67,20,29.97,29.84,3,0,5,0.00
2013-4-23,78.0,58.5,45.7,52.0,45.6,38.0,91,67,26,29.93,29.85,3,0,4,0.00
2013-4-24,61.4,50.6,43.6,50.0,45.9,42.0,95,85,64,29.97,29.85,3,0,5,0.00
2013-4-25,63.6,53.3,46.8,51.0,47.6,45.0,93,82,63,30.14,29.98,4,0,5,0.00
2013-4-26,69.9,53.4,44.8,55.0,48.5,43.0,95,85,59,30.24,30.14,2,0,3,0.00
2013-4-27,77.1,56.7,47.2,59.0,50.6,46.0,95,82,51,30.24,30.07,1,0,3,0.00
2013-4-28,84.7,60.8,44.9,61.0,52.6,44.0,98,78,40,30.07,29.87,2,0,3,0.00
2013-4-29,89.6,66.9,50.8,59.0,52.3,45.0,95,66,23,29.91,29.76,4,1,6,0.00
2013-4-30,84.5,65.3,50.4,51.0,45.1,22.0,87,55,10,29.87,29.78,2,0,6,0.00
2013-5-1,84.9,63.5,46.4,46.0,37.5,19.0,74,45,9,30.09,29.87,3,0,6,0.00
2013-5-2,89.4,63.6,45.7,49.0,41.0,31.0,79,51,13,30.16,30.07,2,0,3,0.00
2013-5-3,88.9,63.9,46.2,54.0,43.7,38.0,77,52,19,30.08,29.80,2,0,4,0.00
2013-5-4,84.3,61.0,47.5,56.0,47.1,38.0,87,66,19,29.80,29.57,3,0,4,0.00
2013-5-5,61.6,57.5,55.3,53.0,51.1,50.0,84,79,69,29.83,29.64,2,0,3,0.00
2013-5-6,66.8,59.2,50.8,54.0,51.1,49.0,93,76,54,29.97,29.82,3,0,5,0.00
2013-5-7,67.5,57.2,50.1,56.0,51.6,48.0,94,82,62,30.04,29.97,2,0,3,0.00
2013-5-8,65.3,55.3,50.9,55.0,51.4,49.0,95,87,70,30.14,30.04,2,0,3,0.00
2013-5-9,67.4,56.0,48.5,56.0,50.9,47.0,95,84,64,30.16,30.07,2,0,4,0.00
2013-5-10,76.7,58.4,49.4,61.0,52.6,47.0,95,82,54,30.18,30.08,2,0,4,0.00
2013-5-11,85.1,61.4,47.9,64.0,53.2,47.0,96,77,46,30.14,30.03,2,0,3,0.00
2013-5-12,78.0,61.0,46.3,62.0,53.5,45.0,97,78,53,30.14,30.00,1,0,3,0.00
2013-5-13,83.8,64.3,48.1,63.0,53.9,47.0,96,72,44,30.08,29.92,2,0,4,0.00
2013-5-14,88.3,65.9,50.9,58.0,50.5,41.0,90,63,21,29.96,29.85,4,0,8,0.00
2013-5-15,80.5,60.7,46.4,51.0,46.8,43.0,91,65,29,30.02,29.95,6,1,8,0.00
2013-5-16,71.5,61.8,53.0,55.0,50.2,47.0,82,67,48,30.00,29.93,6,1,10,0.00
2013-5-17,69.4,56.6,44.9,51.0,47.6,43.0,93,74,48,30.07,29.96,2,0,4,0.00
2013-5-18,80.1,61.2,43.5,52.0,46.3,42.0,95,64,32,30.13,30.05,9,0,14,0.00
2013-5-19,80.1,63.6,48.1,52.0,46.5,41.0,84,58,26,30.14,29.96,1,0,4,0.00
2013-5-20,85.7,65.5,49.3,56.0,48.6,42.0,91,61,22,30.01,29.87,2,0,4,0.00
2013-5-21,72.6,59.4,49.2,49.0,43.1,33.0,89,59,29,30.00,29.90,7,1,12,0.00
2013-5-22,68.5,56.5,47.2,42.0,34.9,30.0,67,46,25,30.04,29.89,6,1,16,0.00
2013-5-23,69.0,56.8,43.2,47.0,41.5,38.0,84,59,35,30.00,29.91,7,1,11,0.00
2013-5-24,72.9,57.4,41.5,50.0,43.8,38.0,89,64,37,29.99,29.89,3,0,6,0.00
2013-5-25,74.5,59.0,43.5,50.0,45.2,40.0,89,64,34,30.03,29.92,8,0,10,0.00
2013-5-26,72.3,60.0,50.0,54.0,49.4,47.0,92,70,45,30.11,30.03,7,1,10,0.00
2013-5-27,61.6,55.0,48.1,57.0,51.6,45.0,97,88,74,30.11,30.00,3,0,5,0.17
2013-5-28,71.2,60.8,55.4,60.0,56.2,53.0,98,86,62,30.00,29.91,3,0,4,0.03
2013-5-29,76.3,63.1,54.5,57.0,53.7,48.0,92,73,42,29.96,29.87,6,1,10,0.00
2013-5-30,80.9,61.5,44.7,53.0,46.7,43.0,92,63,29,29.99,29.90,6,0,8,0.00
2013-5-31,86.2,65.3,47.4,60.0,50.0,44.0,89,62,26,30.02,29.89,1,0,4,0.00
2013-6-1,92.8,69.6,51.7,60.0,53.3,47.0,90,61,24,29.92,29.75,3,0,7,0.00
2013-6-2,87.9,68.4,52.2,58.0,52.7,47.0,86,60,29,29.77,29.61,2,0,4,0.00
2013-6-3,66.2,57.7,51.7,54.0,51.4,49.0,91,80,63,29.89,29.69,4,1,6,0.00
2013-6-4,64.0,56.6,52.9,54.0,51.5,50.0,90,83,70,29.98,29.87,3,0,5,0.00
2013-6-5,71.7,57.9,52.4,57.0,51.8,50.0,91,81,59,30.01,29.91,2,0,3,0.00
2013-6-6,76.8,59.5,50.9,60.0,52.8,49.0,92,80,55,29.96,29.83,2,0,4,0.00
2013-6-7,90.6,65.9,51.0,63.0,56.3,49.0,95,75,35,29.88,29.69,1,0,2,0.00
2013-6-8,87.2,65.3,55.5,65.0,56.6,52.0,94,76,42,29.85,29.68,2,0,4,0.00
2013-6-9,63.4,58.6,56.1,56.0,54.2,53.0,90,85,75,29.89,29.84,2,0,5,0.00
2013-6-10,59.9,56.8,55.0,57.0,55.4,54.0,98,95,89,29.96,29.79,1,0,3,0.18
2013-6-11,74.5,61.5,53.3,61.0,56.1,52.0,97,84,59,29.99,29.87,2,0,4,0.00
2013-6-12,83.2,62.0,44.8,53.0,44.0,32.0,96,61,16,29.98,29.90,7,1,13,0.00
2013-6-13,82.0,63.5,46.1,51.0,44.8,41.0,83,55,27,30.08,29.98,5,0,12,0.00
2013-6-14,84.3,66.1,50.5,55.0,47.5,36.0,86,57,18,29.99,29.78,3,0,4,0.00
2013-6-15,80.0,63.5,48.7,58.0,51.9,46.0,91,69,42,29.96,29.82,2,0,4,0.00
2013-6-16,86.0,65.6,47.8,55.0,49.2,42.0,93,62,22,30.05,29.97,7,1,11,0.00
2013-6-17,79.9,64.1,50.1,56.0,51.8,46.0,87,67,42,30.07,29.99,13,1,13,0.00
2013-6-18,71.4,61.2,50.3,52.0,49.1,45.0,90,67,41,30.01,29.94,8,1,11,0.00
2013-6-19,77.5,62.4,48.8,50.0,46.4,40.0,88,60,27,30.05,29.97,7,1,10,0.00
2013-6-20,81.6,64.3,48.2,52.0,46.9,44.0,86,57,28,30.00,29.90,4,0,9,0.00
2013-6-21,83.8,65.9,48.1,53.0,46.8,30.0,87,56,17,29.96,29.86,5,0,7,0.00
2013-6-22,89.4,69.3,51.1,54.0,48.2,44.0,81,52,21,29.92,29.80,6,0,9,0.00
2013-6-23,69.4,63.2,58.7,61.0,56.5,51.0,90,79,62,29.84,29.79,2,0,3,0.00
2013-6-24,60.6,58.3,56.8,58.0,56.3,55.0,97,93,87,29.90,29.78,1,0,2,0.26
2013-6-25,62.0,60.1,57.7,62.0,59.7,57.0,99,98,97,29.98,29.87,0,0,2,1.97
2013-6-26,74.6,64.9,60.4,67.0,62.9,59.0,99,93,71,30.05,29.97,2,0,4,0.05
2013-6-27,83.4,67.5,56.0,70.0,62.7,55.0,99,86,54,30.08,29.98,1,0,3,0.00
2013-6-28,95.1,72.7,59.3,75.0,64.5,58.0,99,78,32,30.02,29.85,6,0,6,0.00
2013-6-29,98.7,74.8,58.5,71.0,62.9,56.0,93,70,31,29.90,29.75,2,0,5,0.00
2013-6-30,95.8,74.1,58.6,71.0,63.1,56.0,93,72,38,29.82,29.70,1,0,2,0.00
2013-7-1,96.5,73.7,58.0,71.0,63.8,56.0,96,75,33,29.81,29.75,0,0,3,0.00
2013-7-2,89.9,72.3,60.6,70.0,63.2,57.0,91,75,46,29.90,29.79,2,0,5,0.00
2013-7-3,83.8,69.3,58.1,68.0,60.4,56.0,93,75,50,29.90,29.74,2,0,4,0.00
2013-7-4,99.1,75.9,62.8,68.0,61.1,51.0,91,64,25,29.79,29.63,9,0,9,0.00
2013-7-5,83.3,69.3,56.2,62.0,54.9,48.0,84,62,45,29.72,29.64,2,0,5,0.00
2013-7-6,75.8,61.1,53.8,60.0,54.4,51.0,92,79,58,29.78,29.71,2,0,4,0.00
2013-7-7,74.8,60.4,53.1,61.0,53.9,51.0,93,80,57,29.86,29.78,2,0,3,0.00
2013-7-8,78.6,59.0,51.9,62.0,53.5,50.0,94,83,53,29.97,29.86,1,0,3,0.00
2013-7-9,87.6,65.8,52.3,63.0,54.8,51.0,96,73,32,30.04,29.91,2,0,3,0.00
2013-7-10,79.0,60.3,51.5,60.0,52.5,49.0,93,77,48,29.98,29.89,2,0,4,0.00
2013-7-11,74.9,57.6,50.3,59.0,52.0,48.0,94,83,57,29.95,29.84,2,0,3,0.00
2013-7-12,72.8,59.4,52.6,59.0,53.8,51.0,93,83,62,29.94,29.84,2,0,3,0.00
2013-7-13,81.5,61.8,49.2,62.0,53.7,48.0,97,77,47,29.95,29.88,1,0,3,0.00
2013-7-14,77.8,59.7,51.1,61.0,53.2,50.0,95,81,54,30.00,29.88,1,0,3,0.00
2013-7-15,67.5,56.0,50.9,56.0,51.9,49.0,95,86,67,29.92,29.84,2,0,3,0.00
2013-7-16,66.1,57.3,52.9,58.0,54.1,52.0,96,89,74,30.02,29.87,1,0,4,0.00
2013-7-17,75.3,60.3,50.7,61.0,54.9,49.0,96,84,59,30.10,30.01,1,0,4,0.00
2013-7-18,80.3,62.7,52.7,62.0,55.6,52.0,96,80,51,30.05,29.91,1,0,2,0.00
2013-7-19,84.1,64.4,51.5,63.0,55.7,50.0,96,76,47,29.95,29.78,1,0,3,0.00
2013-7-20,83.9,63.6,50.8,64.0,55.0,49.0,95,76,47,29.84,29.70,1,0,4,0.00
2013-7-21,81.4,62.9,51.9,61.0,54.1,49.0,92,75,47,29.88,29.75,1,0,3,0.00
2013-7-22,81.5,62.6,50.0,60.0,54.5,48.0,94,77,46,29.96,29.88,3,0,6,0.00
2013-7-23,77.1,65.4,58.8,62.0,57.5,55.0,90,76,54,29.99,29.93,1,0,3,0.00
2013-7-24,80.3,64.3,54.4,61.0,56.3,52.0,94,77,51,29.98,29.88,1,0,3,0.00
2013-7-25,74.6,62.1,54.5,60.0,55.2,52.0,93,80,58,30.02,29.91,1,0,3,0.00
2013-7-26,76.5,60.5,53.0,61.0,54.4,51.0,93,82,57,30.09,29.99,2,0,4,0.00
2013-7-27,73.6,59.8,52.8,60.0,54.3,51.0,94,83,62,30.03,29.86,3,0,4,0.00
2013-7-28,73.8,59.0,52.4,60.0,53.7,51.0,95,84,61,29.88,29.79,2,0,4,0.00
2013-7-29,66.0,57.0,53.5,58.0,53.5,51.0,94,88,73,30.02,29.84,2,0,6,0.00
2013-7-30,68.7,57.7,53.2,59.0,53.8,51.0,95,87,70,30.11,30.03,3,0,4,0.00
2013-7-31,73.2,60.6,52.0,60.0,54.9,50.0,94,82,62,30.09,29.95,1,0,3,0.00
2013-8-1,79.8,63.0,47.5,61.0,54.0,46.0,96,75,47,30.04,29.91,1,0,3,0.00
2013-8-2,83.0,63.9,48.3,58.0,52.2,47.0,95,70,35,29.97,29.84,3,0,4,0.00
2013-8-3,74.0,58.6,50.1,59.0,52.4,48.0,93,81,58,29.96,29.89,2,0,4,0.00
2013-8-4,70.2,57.5,52.4,57.0,52.8,50.0,94,85,61,30.01,29.94,1,0,4,0.00
2013-8-5,73.5,57.6,51.8,59.0,52.6,50.0,94,84,61,30.03,29.94,2,0,3,0.00
2013-8-6,68.5,57.5,51.1,57.0,52.7,49.0,95,85,65,30.04,29.98,2,0,4,0.00
2013-8-7,67.1,59.8,53.9,58.0,55.1,52.0,94,85,72,30.09,30.02,3,0,4,0.00
2013-8-8,70.7,58.8,51.7,60.0,54.3,50.0,95,85,67,30.03,29.93,2,0,3,0.00
2013-8-9,70.6,58.3,53.5,60.0,53.9,51.0,93,86,65,29.99,29.92,3,0,4,0.00
2013-8-10,72.1,60.3,54.7,60.0,55.6,53.0,94,85,66,30.05,29.98,1,0,4,0.00
2013-8-11,76.6,61.4,53.9,62.0,55.9,52.0,97,84,57,30.01,29.90,2,0,3,0.00
2013-8-12,76.2,60.0,52.5,61.0,54.4,51.0,96,83,56,29.98,29.91,2,0,4,0.00
2013-8-13,86.5,64.4,50.1,62.0,55.1,49.0,97,76,37,29.99,29.87,1,0,3,0.00
2013-8-14,89.1,66.1,50.6,62.0,55.7,49.0,94,73,34,29.96,29.84,2,0,3,0.00
2013-8-15,82.4,66.8,54.9,66.0,60.3,53.0,95,81,56,29.93,29.88,1,0,5,0.00
2013-8-16,82.0,67.1,57.0,67.0,59.9,56.0,96,79,52,29.96,29.90,3,0,4,0.00
2013-8-17,87.6,68.2,53.5,66.0,58.9,52.0,95,75,44,29.96,29.80,1,0,2,0.00
2013-8-18,88.4,70.2,56.6,65.0,60.1,55.0,94,73,42,29.87,29.73,1,0,3,0.00
2013-8-19,78.2,66.6,58.2,67.0,59.6,56.0,91,79,60,29.88,29.78,1,0,2,0.00
2013-8-20,76.1,63.0,58.2,62.0,58.0,55.0,91,84,60,29.90,29.82,2,0,4,0.00
2013-8-21,73.0,61.9,54.1,60.0,56.2,52.0,92,82,59,29.94,29.86,2,0,3,0.00
2013-8-22,68.3,59.9,53.8,59.0,55.0,52.0,94,84,68,29.97,29.88,1,0,4,0.00
2013-8-23,76.0,62.4,52.6,62.0,56.4,51.0,94,82,59,29.92,29.77,1,0,3,0.00
2013-8-24,78.0,63.5,50.9,61.0,56.2,50.0,97,79,54,29.87,29.81,3,0,6,0.00
2013-8-25,73.9,64.3,57.3,64.0,59.6,56.0,95,85,69,29.93,29.86,2,0,4,0.00
2013-8-26,75.9,65.6,57.2,61.0,58.1,55.0,95,78,57,30.00,29.87,1,0,3,0.00
2013-8-27,81.7,63.6,50.9,61.0,55.4,49.0,95,77,44,29.89,29.79,1,0,4,0.00
2013-8-28,76.2,63.2,53.7,64.0,58.6,52.0,95,85,65,29.93,29.84,3,0,5,0.00
2013-8-29,77.8,65.9,57.6,66.0,61.2,56.0,97,85,65,30.04,29.93,2,0,3,0.00
2013-8-30,88.4,69.3,55.5,65.0,60.2,54.0,97,76,41,30.02,29.87,1,0,4,0.00
2013-8-31,80.5,64.4,54.1,60.0,56.7,52.0,94,78,49,29.95,29.86,1,0,4,0.00
2013-9-1,75.3,62.6,53.0,63.0,56.9,51.0,96,83,55,29.94,29.86,2,0,3,0.00
2013-9-2,76.4,64.7,55.1,65.0,59.7,54.0,97,85,66,29.94,29.86,2,0,5,0.00
2013-9-3,77.2,63.1,51.9,61.0,56.3,51.0,96,80,53,29.97,29.89,3,0,4,0.00
2013-9-4,79.2,64.0,51.4,62.0,56.3,50.0,96,78,53,30.01,29.89,1,0,4,0.00
2013-9-5,82.9,66.5,52.0,59.0,53.9,50.0,95,68,35,29.98,29.90,4,1,10,0.00
2013-9-6,88.8,67.5,52.0,58.0,52.9,49.0,91,64,30,29.97,29.81,2,0,4,0.00
2013-9-7,91.7,68.9,52.6,57.0,51.7,47.0,87,59,24,29.86,29.78,3,0,4,0.00
2013-9-8,87.0,67.0,52.5,59.0,53.1,49.0,89,65,31,29.87,29.74,2,0,3,0.00
2013-9-9,88.3,65.8,51.9,58.0,53.9,49.0,92,70,33,29.80,29.67,1,0,2,0.00
2013-9-10,65.5,60.7,55.8,60.0,57.5,53.0,94,89,81,29.89,29.72,2,0,4,0.00
2013-9-11,66.6,62.9,60.6,62.0,60.4,59.0,97,91,82,29.99,29.89,1,0,3,0.00
2013-9-12,77.4,64.2,57.0,64.0,59.5,55.0,95,85,63,29.97,29.86,3,0,3,0.00
2013-9-13,80.8,63.8,55.6,63.0,57.6,54.0,96,82,52,29.89,29.72,1,0,2,0.00
2013-9-14,78.4,61.5,53.2,62.0,55.9,52.0,96,83,57,29.81,29.69,1,0,4,0.00
2013-9-15,74.6,60.6,52.0,60.0,55.3,51.0,96,84,59,29.85,29.75,2,0,4,0.00
2013-9-16,81.5,63.9,52.6,63.0,56.8,52.0,98,80,48,29.88,29.73,2,0,3,0.00
2013-9-17,78.3,64.3,51.0,55.0,51.5,49.0,94,67,40,29.87,29.79,7,1,13,0.00
2013-9-18,80.1,63.5,50.4,54.0,49.8,47.0,88,64,34,29.91,29.79,3,0,4,0.00
2013-9-19,85.1,62.3,47.8,53.0,47.1,37.0,89,63,20,29.86,29.73,3,0,5,0.00
2013-9-20,74.4,59.3,46.0,62.0,54.3,44.0,97,84,62,29.83,29.77,8,1,9,0.26
2013-9-21,67.1,60.4,52.9,62.0,57.2,52.0,98,90,62,29.89,29.77,6,1,11,0.37
2013-9-22,73.5,58.5,48.1,58.0,52.5,47.0,99,83,52,30.00,29.90,8,0,9,0.00
2013-9-23,79.4,62.8,51.0,64.0,56.8,50.0,97,82,54,30.02,29.90,5,0,7,0.00
2013-9-24,76.0,62.4,53.2,56.0,52.3,49.0,96,73,39,29.97,29.89,9,1,11,0.00
2013-9-25,70.4,58.4,47.6,50.0,46.1,42.0,94,67,37,29.95,29.81,6,1,14,0.00
2013-9-26,74.1,57.1,44.0,51.0,43.8,37.0,87,64,29,30.00,29.85,2,0,6,0.00
2013-9-27,76.2,57.6,43.7,49.0,43.6,37.0,90,65,24,30.09,29.99,3,0,5,0.00
2013-9-28,77.1,58.4,45.0,56.0,47.4,40.0,90,71,27,30.08,30.00,2,0,4,0.00
2013-9-29,64.8,59.3,54.4,62.0,57.6,52.0,98,94,90,30.09,30.04,1,0,2,0.08
2013-9-30,67.9,61.5,51.7,67.0,60.9,51.0,99,98,95,30.04,29.97,0,0,0,0.14
2013-10-1,72.8,55.8,45.3,57.0,50.6,45.0,99,85,44,30.01,29.90,2,0,5,0.01
2013-10-2,74.8,58.0,46.9,54.0,47.0,38.0,97,71,27,30.01,29.91,3,0,5,0.00
2013-10-3,73.7,58.4,45.2,45.0,38.8,25.0,83,54,16,30.08,29.96,4,0,6,0.00
2013-10-4,79.1,62.4,52.0,42.0,36.5,24.0,61,41,13,30.10,30.01,2,0,5,0.00
2013-10-5,80.2,57.6,42.1,46.0,37.8,33.0,74,51,18,30.20,30.10,2,0,2,0.00
2013-10-6,76.4,56.4,41.8,54.0,41.4,35.0,79,59,33,30.14,30.01,0,0,0,0.00
2013-10-7,76.4,57.2,42.7,52.0,42.4,36.0,78,60,36,30.01,29.85,0,0,2,0.00
2013-10-8,74.1,56.4,43.1,52.0,45.1,40.0,89,68,38,29.92,29.70,6,0,6,0.00
2013-10-9,72.3,57.4,47.0,48.0,43.5,40.0,84,63,31,29.76,29.62,2,0,4,0.00
2013-10-10,67.4,53.7,45.1,52.0,45.1,41.0,90,74,48,30.01,29.76,1,0,3,0.00
2013-10-11,65.3,51.1,43.3,53.0,46.5,42.0,96,85,61,30.11,29.98,2,0,3,0.00
2013-10-12,68.1,52.0,41.1,53.0,46.4,40.0,97,83,54,30.03,29.87,2,0,3,0.00
2013-10-13,71.9,54.5,43.6,52.0,46.1,42.0,95,76,40,30.06,29.92,2,0,4,0.00
2013-10-14,75.8,53.9,40.6,49.0,42.9,39.0,93,70,32,30.12,29.99,1,0,4,0.00
2013-10-15,76.6,54.0,39.9,48.0,40.2,36.0,87,63,30,30.06,29.95,1,0,2,0.00
2013-10-16,74.9,54.2,39.5,49.0,39.0,34.0,83,60,25,30.11,30.01,0,0,1,0.00
2013-10-17,76.0,54.2,40.4,45.0,39.2,35.0,80,60,29,30.10,29.96,0,0,2,0.00
2013-10-18,73.7,53.6,40.7,51.0,42.4,37.0,88,68,41,30.06,29.98,0,0,1,0.00
2013-10-19,74.4,54.1,40.2,52.0,44.0,38.0,91,71,44,30.10,29.99,0,0,1,0.00
2013-10-20,72.7,53.1,41.2,54.0,44.9,39.0,93,76,39,30.03,29.90,1,0,2,0.00
2013-10-21,69.2,51.9,40.8,55.0,46.4,40.0,96,83,57,30.02,29.91,1,0,1,0.00
2013-10-22,69.2,52.1,41.7,57.0,47.7,40.0,96,86,64,30.04,29.92,0,0,0,0.00
2013-10-23,67.4,50.9,42.3,57.0,46.9,41.0,97,87,61,29.99,29.89,1,0,1,0.00
2013-10-24,60.9,50.9,45.6,53.0,47.7,44.0,96,89,72,30.11,29.98,2,0,3,0.00
2013-10-25,66.9,50.9,41.6,55.0,47.3,41.0,98,88,64,30.19,30.09,1,0,1,0.00
2013-10-26,68.4,52.0,40.5,57.0,47.0,39.0,98,84,64,30.17,30.02,0,0,1,0.00
2013-10-27,60.3,48.6,41.5,51.0,44.9,40.0,97,87,66,30.03,29.64,2,0,5,0.00
2013-10-28,63.0,50.1,40.7,48.0,43.8,39.0,95,80,54,29.83,29.68,3,0,5,0.00
2013-10-29,61.4,50.7,42.9,50.0,46.0,41.0,95,85,63,30.07,29.84,1,0,3,0.00
2013-10-30,64.0,47.8,38.1,51.0,42.9,37.0,97,85,55,30.17,30.07,1,0,3,0.00
2013-10-31,65.7,49.6,38.1,54.0,44.4,37.0,96,83,63,30.20,30.07,1,0,1,0.00
2013-11-1,68.0,52.1,40.7,55.0,46.2,39.0,95,81,59,30.17,30.02,0,0,2,0.00
2013-11-2,70.5,53.4,42.0,56.0,46.0,40.0,95,77,53,30.04,29.89,4,0,6,0.00
2013-11-3,63.3,51.0,40.4,41.0,35.8,30.0,79,59,29,30.06,29.94,2,0,5,0.00
2013-11-4,68.0,49.6,35.8,40.0,34.7,28.0,90,62,23,30.12,29.95,3,0,6,0.00
2013-11-5,68.0,50.5,38.7,47.0,40.3,34.0,84,70,43,30.22,30.11,0,0,2,0.00
2013-11-6,67.7,53.5,42.9,52.0,45.5,40.0,90,75,53,30.27,30.16,0,0,0,0.00
2013-11-7,68.1,54.2,46.4,50.0,45.0,42.0,90,73,42,30.18,30.06,1,0,2,0.00
2013-11-8,72.7,51.8,42.6,56.0,45.1,32.0,96,81,24,30.09,29.95,5,0,10,0.00
2013-11-9,66.0,49.3,37.9,54.0,44.3,36.0,96,84,59,30.06,29.95,0,0,1,0.00
2013-11-10,62.8,49.8,42.5,53.0,46.1,41.0,95,87,68,30.13,30.03,0,0,0,0.00
2013-11-11,62.4,52.8,44.2,53.0,48.5,43.0,95,86,65,30.18,30.08,0,0,0,0.00
2013-11-12,67.8,56.0,49.3,54.0,50.1,47.0,91,81,57,30.28,30.16,0,0,0,0.00
2013-11-13,67.1,52.6,43.5,59.0,49.5,42.0,97,89,74,30.27,30.10,0,0,0,0.00
2013-11-14,60.4,50.3,43.2,56.0,47.8,40.0,98,91,76,30.12,29.89,0,0,0,0.00
2013-11-15,61.6,48.8,40.5,47.0,41.7,38.0,90,77,53,29.89,29.72,0,0,0,0.00
2013-11-16,65.7,49.1,37.3,48.0,42.7,36.0,95,81,52,29.93,29.79,7,0,11,0.00
2013-11-17,58.5,47.3,38.7,50.0,44.2,37.0,97,89,70,30.10,29.93,1,0,2,0.00
2013-11-18,55.9,47.1,39.1,50.0,44.1,38.0,97,90,78,30.18,30.09,1,0,2,0.04
2013-11-19,54.7,52.0,48.5,54.0,51.5,48.0,99,98,96,30.11,29.93,0,0,0,1.97
2013-11-20,57.7,54.2,50.3,58.0,54.0,50.0,99,99,99,29.93,29.85,0,0,1,0.42
2013-11-21,54.1,50.9,49.2,51.0,48.4,38.0,99,92,56,29.98,29.90,2,0,6,0.00
2013-11-22,62.0,54.2,44.0,49.0,44.0,38.0,82,69,58,30.02,29.92,3,1,5,0.00
2013-11-23,58.4,46.4,38.3,49.0,38.9,33.0,87,75,64,30.13,29.97,1,0,4,0.00
2013-11-24,54.5,42.2,32.4,48.0,39.4,31.0,95,90,77,30.28,30.13,0,0,1,0.00
2013-11-25,53.9,42.8,33.7,50.0,40.8,33.0,98,93,84,30.36,30.27,0,0,0,0.00
2013-11-26,54.2,44.2,36.6,51.0,42.4,36.0,98,93,84,30.31,30.07,0,0,0,0.00
2013-11-27,55.5,45.1,36.3,52.0,43.2,35.0,98,93,86,30.06,29.85,0,0,0,0.00
2013-11-28,57.6,46.3,38.7,53.0,44.5,38.0,98,93,84,30.10,29.90,0,0,0,0.00
2013-11-29,57.3,45.8,37.2,53.0,43.9,36.0,98,93,82,30.24,30.09,0,0,0,0.00
2013-11-30,57.2,46.8,39.5,53.0,45.1,39.0,99,94,85,30.30,30.20,0,0,0,0.00
2013-12-1,58.3,46.8,38.3,55.0,45.5,38.0,99,95,86,30.37,30.24,0,0,0,0.00
2013-12-2,59.7,47.5,37.6,55.0,45.9,37.0,99,94,81,30.25,29.95,2,0,6,0.00
2013-12-3,54.5,47.6,36.0,50.0,36.7,27.0,97,68,35,29.98,29.85,6,1,8,0.00
2013-12-4,47.5,36.1,29.1,38.0,31.6,28.0,95,84,59,30.14,29.98,1,0,2,0.00
2013-12-5,45.2,33.4,26.5,37.0,30.2,25.0,96,88,69,30.21,30.13,0,0,2,0.00
2013-12-6,43.8,34.7,26.1,41.0,33.0,25.0,98,93,68,30.23,29.94,0,0,2,0.57
2013-12-7,44.4,35.3,28.2,41.0,32.6,27.0,99,90,52,30.31,29.96,4,0,10,0.00
2013-12-8,39.1,31.0,26.5,35.0,28.7,25.0,97,91,83,30.38,30.27,0,0,2,0.00
2013-12-9,40.9,30.9,23.6,37.0,29.2,22.0,96,93,85,30.48,30.36,0,0,0,0.00
2013-12-10,42.9,32.8,25.4,40.0,31.2,24.0,97,94,87,30.47,30.26,0,0,0,0.00
2013-12-11,46.8,35.5,27.8,43.0,34.0,27.0,98,94,87,30.30,30.21,0,0,0,0.00
2013-12-12,47.8,36.5,28.5,44.0,34.9,28.0,98,94,86,30.32,30.20,0,0,0,0.00
2013-12-13,49.3,37.9,29.2,46.0,36.4,28.0,99,94,86,30.33,30.23,0,0,0,0.00
2013-12-14,51.1,39.4,30.8,49.0,38.2,30.0,99,95,90,30.41,30.29,0,0,0,0.00
2013-12-15,51.0,39.4,30.3,48.0,38.3,30.0,99,96,89,30.40,30.27,0,0,0,0.00
2013-12-16,52.6,41.0,32.2,50.0,40.0,32.0,99,96,89,30.28,30.16,0,0,0,0.00
2013-12-17,52.4,41.4,33.3,50.0,40.5,33.0,99,96,92,30.23,30.07,0,0,0,0.00
2013-12-18,51.9,42.5,36.0,50.0,41.7,36.0,99,97,91,30.07,29.79,0,0,0,0.00
2013-12-19,56.5,44.4,35.7,42.0,38.4,31.0,98,80,55,29.98,29.76,4,0,5,0.00
2013-12-20,51.3,39.3,29.8,43.0,35.1,28.0,94,85,71,30.05,29.96,1,0,1,0.00
2013-12-21,56.2,46.5,38.9,52.0,44.6,36.0,98,93,84,30.11,29.99,2,0,2,0.00
2013-12-22,55.2,43.9,35.7,52.0,42.6,35.0,99,95,88,30.32,30.11,1,0,1,0.00
2013-12-23,55.3,43.6,35.0,52.0,42.3,34.0,99,95,87,30.43,30.32,1,0,1,0.00
2013-12-24,56.3,44.7,37.0,53.0,43.5,36.0,99,95,89,30.37,30.22,1,0,1,0.00
2013-12-25,53.8,42.1,33.9,51.0,40.9,33.0,99,95,86,30.34,30.22,0,0,0,0.00
2013-12-26,53.6,40.8,31.8,49.0,39.1,31.0,99,93,84,30.30,30.18,0,0,0,0.00
2013-12-27,49.9,40.1,33.1,48.0,39.0,32.0,98,96,91,30.28,30.17,0,0,0,0.00
2013-12-28,52.6,39.7,30.3,49.0,38.4,30.0,99,95,85,30.20,30.06,0,0,0,0.00
2013-12-29,53.4,44.8,36.1,46.0,40.5,34.0,96,85,75,30.22,30.12,0,0,0,0.00
2013-12-30,52.7,40.4,30.5,46.0,37.6,29.0,97,90,76,30.30,30.21,1,0,1,0.00
2013-12-31,51.8,41.9,36.1,48.0,40.4,35.0,97,94,85,30.32,30.18,0,0,0,0.00
2014-1-1,53.9,40.9,31.4,50.0,39.3,30.0,98,94,86,30.25,30.15,0,0,0,0.00
2014-1-2,53.4,42.9,34.5,50.0,41.3,34.0,98,94,86,30.22,30.08,0,0,0,0.00